Location: Arlington
(40.6323°N, 74.1651°W)
Time: 21:35:48
(UTC+00:00)

Cosmos 2227 Rocket - Pass Details

Date: 22 November 2019
Orbit: 838 x 846 km, 71.0° (Epoch: 12 December)

Event Time Altitude Azimuth Distance (km) Brightness Sun altitude
Rises 22:00:01 0° 330° (NNW) 3,410 5.5 -5.3°
Reaches altitude 10° 22:02:33 10° 325° (NW) 2,470 4.8 -5.8°
Maximum altitude 22:07:56 47° 253° (WSW) 1,110 3.5 -6.7°
Drops below altitude 10° 22:13:17 10° 181° (S) 2,450 4.9 -7.7°
Sets 22:15:48 0° 176° (S) 3,379 5.5 -8.1°
